Regional Weather Roundup
Issued by NWS

Home | Current Version | Previous Version | Text Only | Print | Product List | Glossary On
Versions: 1 2 3 4 5 6 7 8 9 10 11 12 13 14 15 16 17 18 19 20 21 22 23 24 25 26 27 28 29 30 31 32 33 34 35 36 37 38 39 40 41 42 43 44 45 46 47 48 49 50
000
ASUS43 KTOP 270108
RWRKS

WEATHER ROUNDUP FOR KANSAS
NATIONAL WEATHER SERVICE GOODLAND KS
700 PM CST MON JAN 26 2015

NOTE:  "FAIR" INDICATES FEW OR NO CLOUDS BELOW 12,000 FEET WITH NO
SIGNIFICANT WEATHER AND/OR OBSTRUCTIONS TO VISIBILITY.

KSZ001>006-013>018-027>032-041>047-270200-
NORTHWEST KANSAS

CITY           SKY/WX    TMP DP  RH WIND       PRES   REMARKS
GOODLAND       CLEAR     44  30  57 W9        30.15R
HAYS           CLEAR     52  27  37 S5        30.07R
HILL CITY      CLEAR     53  28  38 NW6       30.07R
RUSSELL        CLEAR     60  31  33 CALM      30.04R
$$

KSZ061>065-074>080-084>089-270200-
SOUTHWEST KANSAS

CITY           SKY/WX    TMP DP  RH WIND       PRES   REMARKS
DODGE CITY     CLEAR     52  28  39 NW9       30.12R
ELKHART          N/A     60  30  32 NW2         N/A
GARDEN CITY    FAIR      48  27  44 N10       30.13R
GREAT BEND     CLEAR     48  28  46 SW6       30.07R
LIBERAL        CLEAR     52  28  40 NW9       30.18R
PRATT          CLEAR     54  32  43 CALM      30.09S
$$

KSZ066>073-081>083-090>101-270200-
SOUTHEAST KANSAS

CITY           SKY/WX    TMP DP  RH WIND       PRES   REMARKS
CHANUTE        CLEAR     48  35  60 W5        30.01R
COFFEYVILLE    CLEAR     56  36  47 NW6       30.00R
HUTCHINSON     CLEAR     56  32  40 N6        30.05R
MEDICINE LODGE   N/A     57  33  40 N7        30.06R
NEWTON         CLEAR     55  30  38 N6        30.07R
PARSONS        CLEAR     50  35  56 NW3       30.02R
WICHITA INTL   CLEAR     56  33  42 NW6       30.04R
WICHITA JABRA  CLEAR     58  33  39 NW3       30.04R
WICHITA MCCONL CLEAR     59  34  39 N6        30.05R
WINFIELD       CLEAR     53  31  42 N6        30.04R
$$

KSZ007>012-019>026-033>040-048>060-102>105-270200-
NORTHEAST KANSAS

CITY           SKY/WX    TMP DP  RH WIND       PRES   REMARKS
CONCORDIA      CLEAR     55  33  43 N6        30.03R
EMPORIA        CLEAR     53  34  48 W9        30.01R
LAWRENCE       CLEAR     44  30  57 CALM      30.00R
MANHATTAN      CLEAR     56  27  32 NW5       30.02R
MARYSVILLE     CLEAR     43  28  56 NW6       30.01R
OLATHE IND     CLEAR     50  32  50 NW6       30.00R
OLATHE EXE     CLEAR     50  32  50 NW3       29.98R
SALINA         CLEAR     52  33  48 W5        30.04R
TOPEKA BILLARD CLEAR     49  28  44 CALM      30.01R
TOPEKA FORBES  CLEAR     51  29  42 W3        30.00R
$$


USA.gov is the U.S. government's official web portal to all federal, state and local government web resources and services.